N624ML SCFT-SCQP

Flight info

Callsign N624ML
Flight time 1h 16m
Altitude 20000
Route SCFT/27 DOGTU T102 MON V551 MALTU VUSKA RNAV/Y01
Aircraft PC12/L-G/C

Departure

Time 2026-04-29 00:22
Airport Futaleufú Airport (SCFT)

Arrival

Time 2026-04-29 01:38
Airport La Araucanía International Airport (SCQP)
Time Latitude Longitude Altitude Speed Heading
2026-04-29 00:05 -43.18848 -71.85446 1115 ft 0 kts 48°
2026-04-29 00:17 -43.18844 -71.85442 1113 ft 2 kts 26°
2026-04-29 00:17 -43.18834 -71.85431 1113 ft 0 kts 47°
2026-04-29 00:18 -43.18834 -71.85430 1113 ft 0 kts 45°
2026-04-29 00:18 -43.18821 -71.85391 1112 ft 9 kts 88°
2026-04-29 00:18 -43.18839 -71.85264 1110 ft 16 kts 104°
2026-04-29 00:18 -43.18871 -71.85085 1107 ft 21 kts 99°
2026-04-29 00:19 -43.18904 -71.84871 1099 ft 23 kts 104°
2026-04-29 00:19 -43.18943 -71.84650 1085 ft 17 kts 115°
2026-04-29 00:19 -43.18965 -71.84541 1075 ft 3 kts 53°
2026-04-29 00:19 -43.18961 -71.84547 1076 ft 0 kts 276°
2026-04-29 00:21 -43.18954 -71.84607 1082 ft 35 kts 282°
2026-04-29 00:21 -43.18856 -71.85234 1284 ft 81 kts 276°
2026-04-29 00:22 -43.18767 -71.85896 1797 ft 82 kts 280°
2026-04-29 00:22 -43.18681 -71.86813 2057 ft 118 kts 277°
2026-04-29 00:22 -43.18448 -71.87924 2697 ft 120 kts 291°
2026-04-29 00:22 -43.18362 -71.89034 3149 ft 141 kts 255°
2026-04-29 00:23 -43.18832 -71.90193 4002 ft 138 kts 223°
2026-04-29 00:23 -43.19621 -71.90962 4479 ft 153 kts 216°
2026-04-29 00:23 -43.20609 -71.91549 5043 ft 160 kts 208°
2026-04-29 00:23 -43.21678 -71.92181 5154 ft 188 kts 207°
2026-04-29 00:24 -43.23014 -71.92780 5152 ft 203 kts 218°
2026-04-29 00:24 -43.23823 -71.94262 5531 ft 193 kts 246°
2026-04-29 00:24 -43.24481 -71.95842 5920 ft 190 kts 242°
2026-04-29 00:24 -43.25194 -71.97357 6293 ft 187 kts 240°
2026-04-29 00:25 -43.25922 -71.98789 6619 ft 181 kts 238°
2026-04-29 00:25 -43.26648 -72.00188 7005 ft 179 kts 239°
2026-04-29 00:25 -43.27362 -72.01539 7399 ft 176 kts 237°
2026-04-29 00:25 -43.28077 -72.02894 7783 ft 173 kts 236°
2026-04-29 00:26 -43.28772 -72.04198 8161 ft 169 kts 236°
2026-04-29 00:26 -43.29455 -72.05489 8547 ft 165 kts 237°
2026-04-29 00:26 -43.30113 -72.06730 8929 ft 161 kts 236°
2026-04-29 00:26 -43.30768 -72.07967 9319 ft 156 kts 234°
2026-04-29 00:27 -43.31393 -72.09154 9698 ft 153 kts 235°
2026-04-29 00:27 -43.32007 -72.10307 10086 ft 148 kts 234°
2026-04-29 00:27 -43.32599 -72.11430 10468 ft 144 kts 234°
2026-04-29 00:27 -43.33175 -72.12514 10845 ft 140 kts 234°
2026-04-29 00:28 -43.33747 -72.13603 11232 ft 137 kts 231°
2026-04-29 00:28 -43.34304 -72.14654 11608 ft 134 kts 232°
2026-04-29 00:28 -43.34849 -72.15682 11987 ft 131 kts 230°
2026-04-29 00:28 -43.35384 -72.16707 12376 ft 128 kts 231°
2026-04-29 00:29 -43.35905 -72.17688 12764 ft 124 kts 230°
2026-04-29 00:29 -43.36398 -72.18628 13147 ft 121 kts 229°
2026-04-29 00:29 -43.36882 -72.19541 13519 ft 118 kts 229°
2026-04-29 00:29 -43.37353 -72.20435 13875 ft 115 kts 227°
2026-04-29 00:30 -43.37815 -72.21302 14262 ft 110 kts 227°
2026-04-29 00:30 -43.38256 -72.22137 14634 ft 107 kts 226°
2026-04-29 00:30 -43.38681 -72.22949 15004 ft 104 kts 226°
2026-04-29 00:30 -43.39094 -72.23731 15374 ft 102 kts 227°
2026-04-29 00:31 -43.39503 -72.24501 15752 ft 99 kts 225°
2026-04-29 00:31 -43.39899 -72.25246 16122 ft 97 kts 227°
2026-04-29 00:31 -43.40285 -72.25980 16494 ft 95 kts 225°
2026-04-29 00:31 -43.40670 -72.26719 16785 ft 97 kts 225°
2026-04-29 00:32 -43.41077 -72.27480 17054 ft 101 kts 226°
2026-04-29 00:32 -43.41499 -72.28271 17297 ft 105 kts 227°
2026-04-29 00:32 -43.41927 -72.29095 17520 ft 108 kts 225°
2026-04-29 00:32 -43.42376 -72.29946 17776 ft 110 kts 226°
2026-04-29 00:33 -43.42826 -72.30801 18033 ft 112 kts 226°
2026-04-29 00:33 -43.43281 -72.31673 18273 ft 113 kts 226°
2026-04-29 00:33 -43.43742 -72.32546 18530 ft 114 kts 227°
2026-04-29 00:33 -43.44211 -72.33441 18800 ft 115 kts 225°
2026-04-29 00:34 -43.44681 -72.34335 19041 ft 117 kts 226°
2026-04-29 00:34 -43.45153 -72.35232 19283 ft 117 kts 227°
2026-04-29 00:34 -43.45628 -72.36138 19532 ft 117 kts 227°
2026-04-29 00:34 -43.46124 -72.37080 19621 ft 126 kts 226°
2026-04-29 00:35 -43.46659 -72.38095 19654 ft 135 kts 227°
2026-04-29 00:35 -43.47230 -72.39178 19647 ft 145 kts 226°
2026-04-29 00:35 -43.47835 -72.40324 19621 ft 152 kts 228°
2026-04-29 00:35 -43.48461 -72.41522 19620 ft 155 kts 227°
2026-04-29 00:36 -43.49091 -72.42735 19621 ft 159 kts 227°
2026-04-29 00:36 -43.49746 -72.43984 19628 ft 161 kts 228°
2026-04-29 00:36 -43.50317 -72.45338 19601 ft 177 kts 245°
2026-04-29 00:36 -43.49955 -72.47174 19619 ft 232 kts 283°
2026-04-29 00:37 -43.48523 -72.48653 19628 ft 288 kts 321°
2026-04-29 00:37 -43.46513 -72.49258 19648 ft 306 kts 336°
2026-04-29 00:37 -43.44401 -72.49715 19656 ft 306 kts 335°
2026-04-29 00:37 -43.42300 -72.50248 19635 ft 304 kts 332°
2026-04-29 00:38 -43.40237 -72.50834 19646 ft 303 kts 332°
2026-04-29 00:38 -43.38197 -72.51447 19681 ft 303 kts 332°
2026-04-29 00:38 -43.36129 -72.52079 19674 ft 303 kts 331°
2026-04-29 00:38 -43.34063 -72.52718 19684 ft 303 kts 331°
2026-04-29 00:39 -43.32020 -72.53353 19682 ft 303 kts 331°
2026-04-29 00:39 -43.29980 -72.53983 19705 ft 302 kts 330°
2026-04-29 00:39 -43.27920 -72.54623 19709 ft 302 kts 330°
2026-04-29 00:39 -43.25867 -72.55254 19703 ft 302 kts 330°
2026-04-29 00:40 -43.23823 -72.55892 19719 ft 302 kts 330°
2026-04-29 00:40 -43.21778 -72.56522 19732 ft 301 kts 332°
2026-04-29 00:40 -43.19718 -72.57159 19697 ft 302 kts 330°
2026-04-29 00:40 -43.17681 -72.57783 19718 ft 301 kts 329°
2026-04-29 00:41 -43.15642 -72.58415 19733 ft 301 kts 332°
2026-04-29 00:41 -43.13565 -72.59058 19744 ft 301 kts 330°
2026-04-29 00:41 -43.11515 -72.59687 19774 ft 301 kts 331°
2026-04-29 00:41 -43.09458 -72.60319 19772 ft 301 kts 330°
2026-04-29 00:42 -43.07340 -72.60975 19767 ft 303 kts 330°
2026-04-29 00:42 -43.05233 -72.61618 19770 ft 302 kts 331°
2026-04-29 00:42 -43.03161 -72.62255 19775 ft 301 kts 330°
2026-04-29 00:42 -43.01105 -72.62888 19810 ft 302 kts 330°
2026-04-29 00:43 -42.99026 -72.63519 19803 ft 301 kts 331°
2026-04-29 00:43 -42.96969 -72.64154 19815 ft 302 kts 330°
2026-04-29 00:43 -42.94892 -72.64793 19808 ft 303 kts 330°
2026-04-29 00:43 -42.92829 -72.65424 19805 ft 303 kts 331°
2026-04-29 00:44 -42.90782 -72.66054 19819 ft 304 kts 331°
2026-04-29 00:44 -42.88707 -72.66683 19818 ft 303 kts 331°
2026-04-29 00:44 -42.86641 -72.67314 19826 ft 302 kts 331°
2026-04-29 00:44 -42.84573 -72.67944 19828 ft 301 kts 331°
2026-04-29 00:45 -42.82493 -72.68581 19824 ft 301 kts 332°
2026-04-29 00:45 -42.80454 -72.69199 19820 ft 300 kts 332°
2026-04-29 00:45 -42.78400 -72.69824 19831 ft 299 kts 331°
2026-04-29 00:45 -42.76363 -72.70446 19825 ft 299 kts 330°
2026-04-29 00:46 -42.74344 -72.71062 19824 ft 299 kts 332°
2026-04-29 00:46 -42.72291 -72.71687 19829 ft 300 kts 331°
2026-04-29 00:46 -42.70255 -72.72309 19841 ft 300 kts 332°
2026-04-29 00:46 -42.68213 -72.72923 19855 ft 300 kts 332°
2026-04-29 00:47 -42.66163 -72.73550 19860 ft 300 kts 331°
2026-04-29 00:47 -42.64133 -72.74161 19842 ft 300 kts 331°
2026-04-29 00:47 -42.62094 -72.74779 19865 ft 299 kts 331°
2026-04-29 00:47 -42.60067 -72.75396 19858 ft 299 kts 331°
2026-04-29 00:48 -42.58012 -72.76015 19851 ft 299 kts 332°
2026-04-29 00:48 -42.55990 -72.76627 19861 ft 300 kts 332°
2026-04-29 00:48 -42.53959 -72.77240 19859 ft 300 kts 331°
2026-04-29 00:48 -42.51908 -72.77862 19871 ft 301 kts 332°
2026-04-29 00:49 -42.49887 -72.78466 19864 ft 300 kts 332°
2026-04-29 00:49 -42.47829 -72.79090 19882 ft 300 kts 331°
2026-04-29 00:49 -42.45788 -72.79705 19887 ft 300 kts 332°
2026-04-29 00:49 -42.43756 -72.80318 19865 ft 300 kts 332°
2026-04-29 00:50 -42.41737 -72.80924 19854 ft 300 kts 332°
2026-04-29 00:50 -42.39792 -72.81753 19885 ft 280 kts 316°
2026-04-29 00:50 -42.37817 -72.82493 19900 ft 305 kts 336°
2026-04-29 00:50 -42.35730 -72.82903 19890 ft 304 kts 336°
2026-04-29 00:51 -42.33649 -72.83378 19884 ft 301 kts 334°
2026-04-29 00:51 -42.31598 -72.83909 19874 ft 299 kts 332°
2026-04-29 00:51 -42.29567 -72.84480 19884 ft 299 kts 332°
2026-04-29 00:51 -42.27532 -72.85059 19884 ft 299 kts 332°
2026-04-29 00:52 -42.25525 -72.85635 19895 ft 298 kts 332°
2026-04-29 00:52 -42.23486 -72.86223 19903 ft 299 kts 332°
2026-04-29 00:52 -42.21448 -72.86811 19910 ft 299 kts 332°
2026-04-29 00:52 -42.19405 -72.87402 19898 ft 299 kts 332°
2026-04-29 00:53 -42.17390 -72.87981 19895 ft 299 kts 332°
2026-04-29 00:53 -42.15352 -72.88569 19908 ft 299 kts 332°
2026-04-29 00:53 -42.13305 -72.89156 19896 ft 299 kts 332°
2026-04-29 00:53 -42.11263 -72.89745 19898 ft 298 kts 332°
2026-04-29 00:54 -42.09231 -72.90328 19906 ft 298 kts 332°
2026-04-29 00:54 -42.07220 -72.90906 19894 ft 298 kts 333°
2026-04-29 00:54 -42.05170 -72.91499 19925 ft 299 kts 333°
2026-04-29 00:54 -42.03148 -72.92080 19934 ft 300 kts 333°
2026-04-29 00:55 -42.01124 -72.92657 19949 ft 299 kts 333°
2026-04-29 00:55 -41.99075 -72.93245 19943 ft 299 kts 333°
2026-04-29 00:55 -41.97037 -72.93824 19937 ft 299 kts 332°
2026-04-29 00:55 -41.95023 -72.94399 19928 ft 299 kts 333°
2026-04-29 00:56 -41.92990 -72.94987 19944 ft 298 kts 333°
2026-04-29 00:56 -41.90945 -72.95569 19953 ft 298 kts 333°
2026-04-29 00:56 -41.88932 -72.96145 19945 ft 298 kts 333°
2026-04-29 00:56 -41.86903 -72.96728 19946 ft 297 kts 333°
2026-04-29 00:57 -41.84879 -72.97300 19940 ft 296 kts 333°
2026-04-29 00:57 -41.82884 -72.97867 19939 ft 295 kts 333°
2026-04-29 00:57 -41.80886 -72.98441 19941 ft 295 kts 333°
2026-04-29 00:57 -41.78869 -72.99013 19947 ft 294 kts 333°
2026-04-29 00:58 -41.76878 -72.99580 19948 ft 294 kts 333°
2026-04-29 00:58 -41.74855 -73.00156 19947 ft 294 kts 333°
2026-04-29 00:58 -41.72841 -73.00727 19947 ft 293 kts 333°
2026-04-29 00:58 -41.70843 -73.01294 19950 ft 292 kts 333°
2026-04-29 00:59 -41.68829 -73.01863 19945 ft 292 kts 332°
2026-04-29 00:59 -41.66776 -73.02449 19943 ft 292 kts 333°
2026-04-29 00:59 -41.64759 -73.03020 19945 ft 292 kts 332°
2026-04-29 00:59 -41.62751 -73.03593 19941 ft 292 kts 332°
2026-04-29 01:00 -41.60773 -73.04151 19948 ft 291 kts 332°
2026-04-29 01:00 -41.58788 -73.04715 19956 ft 291 kts 333°
2026-04-29 01:00 -41.56813 -73.05274 19956 ft 291 kts 333°
2026-04-29 01:00 -41.54835 -73.05831 19955 ft 291 kts 333°
2026-04-29 01:01 -41.52842 -73.06395 19952 ft 292 kts 333°
2026-04-29 01:01 -41.50861 -73.06952 19953 ft 292 kts 333°
2026-04-29 01:01 -41.48875 -73.07513 19960 ft 291 kts 333°
2026-04-29 01:01 -41.46904 -73.08068 19958 ft 292 kts 333°
2026-04-29 01:02 -41.44929 -73.08626 19959 ft 292 kts 333°
2026-04-29 01:02 -41.42893 -73.09059 19944 ft 307 kts 347°
2026-04-29 01:02 -41.40744 -73.08830 19961 ft 314 kts 356°
2026-04-29 01:02 -41.38553 -73.08421 19962 ft 316 kts 358°
2026-04-29 01:03 -41.36397 -73.07998 19962 ft 316 kts 358°
2026-04-29 01:03 -41.34215 -73.07577 19966 ft 315 kts 358°
2026-04-29 01:03 -41.32045 -73.07165 19970 ft 315 kts 357°
2026-04-29 01:03 -41.29868 -73.06761 19978 ft 315 kts 356°
2026-04-29 01:04 -41.27659 -73.06347 19974 ft 315 kts 357°
2026-04-29 01:04 -41.25473 -73.05945 19983 ft 315 kts 357°
2026-04-29 01:04 -41.23323 -73.05542 19987 ft 316 kts 356°
2026-04-29 01:04 -41.21150 -73.05137 19983 ft 315 kts 356°
2026-04-29 01:05 -41.18970 -73.04736 19988 ft 315 kts 357°
2026-04-29 01:05 -41.16816 -73.04335 19993 ft 315 kts 357°
2026-04-29 01:05 -41.14640 -73.03933 19990 ft 315 kts 358°
2026-04-29 01:05 -41.12485 -73.03531 19988 ft 315 kts 358°
2026-04-29 01:06 -41.10296 -73.03127 19989 ft 315 kts 357°
2026-04-29 01:06 -41.08122 -73.02722 19995 ft 314 kts 357°
2026-04-29 01:06 -41.05963 -73.02325 19996 ft 315 kts 357°
2026-04-29 01:06 -41.03817 -73.01926 19989 ft 315 kts 357°
2026-04-29 01:07 -41.01642 -73.01521 19996 ft 315 kts 356°
2026-04-29 01:07 -40.99466 -73.01123 19999 ft 315 kts 356°
2026-04-29 01:07 -40.97290 -73.00725 20003 ft 314 kts 357°
2026-04-29 01:07 -40.95138 -73.00331 20004 ft 315 kts 357°
2026-04-29 01:08 -40.92968 -72.99928 20004 ft 315 kts 357°
2026-04-29 01:08 -40.90810 -72.99531 20008 ft 315 kts 357°
2026-04-29 01:08 -40.88643 -72.99130 19995 ft 314 kts 357°
2026-04-29 01:08 -40.86476 -72.98730 19992 ft 313 kts 356°
2026-04-29 01:09 -40.84335 -72.98338 19990 ft 312 kts 357°
2026-04-29 01:09 -40.82197 -72.97947 19989 ft 311 kts 356°
2026-04-29 01:09 -40.80040 -72.97549 19979 ft 311 kts 357°
2026-04-29 01:09 -40.77902 -72.97159 19982 ft 310 kts 356°
2026-04-29 01:10 -40.75776 -72.96770 19980 ft 310 kts 357°
2026-04-29 01:10 -40.73632 -72.96378 19984 ft 309 kts 357°
2026-04-29 01:10 -40.71508 -72.95986 19981 ft 309 kts 357°
2026-04-29 01:10 -40.69379 -72.95596 19988 ft 308 kts 356°
2026-04-29 01:11 -40.67258 -72.95209 19985 ft 308 kts 356°
2026-04-29 01:11 -40.65116 -72.94819 19961 ft 308 kts 356°
2026-04-29 01:11 -40.63003 -72.94434 19949 ft 308 kts 356°
2026-04-29 01:11 -40.60870 -72.94044 19909 ft 310 kts 356°
2026-04-29 01:12 -40.58727 -72.93664 19690 ft 317 kts 357°
2026-04-29 01:12 -40.56509 -72.93265 19471 ft 324 kts 358°
2026-04-29 01:12 -40.54279 -72.92857 19249 ft 327 kts 358°
2026-04-29 01:12 -40.52007 -72.92439 19027 ft 330 kts 358°
2026-04-29 01:13 -40.49737 -72.92024 18815 ft 331 kts 358°
2026-04-29 01:13 -40.47439 -72.91606 18593 ft 332 kts 359°
2026-04-29 01:13 -40.45178 -72.91193 18387 ft 333 kts 358°
2026-04-29 01:13 -40.42863 -72.90771 18176 ft 331 kts 359°
2026-04-29 01:14 -40.40586 -72.90357 17942 ft 330 kts 359°
2026-04-29 01:14 -40.38343 -72.89948 17715 ft 328 kts 358°
2026-04-29 01:14 -40.36081 -72.89540 17500 ft 327 kts 358°
2026-04-29 01:14 -40.33825 -72.89136 17287 ft 326 kts 358°
2026-04-29 01:15 -40.31586 -72.88748 17065 ft 325 kts 358°
2026-04-29 01:15 -40.29358 -72.88371 16840 ft 325 kts 358°
2026-04-29 01:15 -40.27100 -72.87981 16621 ft 324 kts 358°
2026-04-29 01:15 -40.24864 -72.87598 16411 ft 323 kts 358°
2026-04-29 01:16 -40.22645 -72.87226 16197 ft 323 kts 359°
2026-04-29 01:16 -40.20418 -72.86842 15971 ft 322 kts 359°
2026-04-29 01:16 -40.18196 -72.86463 15753 ft 322 kts 359°
2026-04-29 01:16 -40.15971 -72.86081 15516 ft 322 kts 359°
2026-04-29 01:17 -40.13752 -72.85706 15302 ft 322 kts 359°
2026-04-29 01:17 -40.11530 -72.85329 15091 ft 321 kts 359°
2026-04-29 01:17 -40.09334 -72.84955 14865 ft 321 kts 359°
2026-04-29 01:17 -40.07113 -72.84576 14649 ft 321 kts 359°
2026-04-29 01:18 -40.04915 -72.84203 14442 ft 321 kts 359°
2026-04-29 01:18 -40.00475 -72.83447 14003 ft 320 kts 359°
2026-04-29 01:18 -39.98301 -72.83077 13790 ft 320 kts 359°
2026-04-29 01:19 -39.96085 -72.82704 13583 ft 320 kts 359°
2026-04-29 01:19 -39.93890 -72.82332 13387 ft 320 kts 360°
2026-04-29 01:19 -39.91680 -72.81961 13178 ft 320 kts 360°
2026-04-29 01:19 -39.89483 -72.81587 12960 ft 319 kts 360°
2026-04-29 01:20 -39.87266 -72.81215 12732 ft 319 kts 360°
2026-04-29 01:20 -39.85070 -72.80845 12505 ft 317 kts
2026-04-29 01:20 -39.82902 -72.80477 12274 ft 312 kts
2026-04-29 01:20 -39.80773 -72.80112 12052 ft 309 kts
2026-04-29 01:21 -39.78659 -72.79760 11833 ft 307 kts
2026-04-29 01:21 -39.76541 -72.79405 11607 ft 305 kts
2026-04-29 01:21 -39.74438 -72.79046 11373 ft 304 kts
2026-04-29 01:21 -39.72349 -72.78695 11143 ft 303 kts
2026-04-29 01:22 -39.70255 -72.78347 10922 ft 302 kts
2026-04-29 01:22 -39.68186 -72.78002 10705 ft 301 kts
2026-04-29 01:22 -39.66103 -72.77646 10485 ft 297 kts
2026-04-29 01:22 -39.64089 -72.77301 10255 ft 286 kts
2026-04-29 01:23 -39.62147 -72.76973 10033 ft 278 kts
2026-04-29 01:23 -39.60237 -72.76656 9807 ft 273 kts
2026-04-29 01:23 -39.58384 -72.76348 9587 ft 268 kts
2026-04-29 01:23 -39.56543 -72.76041 9364 ft 265 kts
2026-04-29 01:24 -39.54724 -72.75735 9137 ft 261 kts
2026-04-29 01:24 -39.52959 -72.75441 8918 ft 256 kts
2026-04-29 01:24 -39.51192 -72.75143 8695 ft 252 kts
2026-04-29 01:24 -39.49470 -72.74859 8472 ft 249 kts
2026-04-29 01:25 -39.47765 -72.74572 8238 ft 245 kts
2026-04-29 01:25 -39.46077 -72.74291 8015 ft 242 kts
2026-04-29 01:25 -39.44441 -72.74018 7792 ft 240 kts
2026-04-29 01:25 -39.42813 -72.73748 7570 ft 238 kts
2026-04-29 01:26 -39.41210 -72.73482 7352 ft 236 kts
2026-04-29 01:26 -39.39588 -72.73211 7128 ft 235 kts
2026-04-29 01:26 -39.37999 -72.73163 6914 ft 230 kts 353°
2026-04-29 01:26 -39.36456 -72.73229 6694 ft 229 kts 352°
2026-04-29 01:27 -39.34972 -72.73285 6490 ft 228 kts 353°
2026-04-29 01:27 -39.33448 -72.73335 6273 ft 227 kts 353°
2026-04-29 01:27 -39.31961 -72.73379 6062 ft 226 kts 353°
2026-04-29 01:27 -39.30442 -72.73424 5842 ft 224 kts 354°
2026-04-29 01:28 -39.28879 -72.73466 5618 ft 224 kts 354°
2026-04-29 01:28 -39.27333 -72.73511 5390 ft 223 kts 353°
2026-04-29 01:28 -39.25774 -72.73556 5164 ft 222 kts 353°
2026-04-29 01:28 -39.24238 -72.73601 4937 ft 219 kts 354°
2026-04-29 01:29 -39.22741 -72.73643 4713 ft 215 kts 354°
2026-04-29 01:29 -39.21247 -72.73686 4490 ft 213 kts 354°
2026-04-29 01:29 -39.19792 -72.73727 4269 ft 206 kts 354°
2026-04-29 01:29 -39.18379 -72.73766 4040 ft 201 kts 354°
2026-04-29 01:30 -39.16995 -72.73807 3816 ft 197 kts 354°
2026-04-29 01:30 -39.15624 -72.73846 3589 ft 194 kts 354°
2026-04-29 01:30 -39.14276 -72.73755 3367 ft 195 kts
2026-04-29 01:30 -39.12967 -72.73284 3135 ft 195 kts 14°
2026-04-29 01:31 -39.11678 -72.72754 2917 ft 195 kts 15°
2026-04-29 01:31 -39.10393 -72.72227 2769 ft 192 kts 14°
2026-04-29 01:31 -39.09148 -72.71718 2703 ft 181 kts 14°
2026-04-29 01:31 -39.07980 -72.71246 2709 ft 170 kts 13°
2026-04-29 01:32 -39.06872 -72.70809 2719 ft 162 kts 13°
2026-04-29 01:32 -39.05801 -72.70384 2725 ft 158 kts 13°
2026-04-29 01:32 -39.04772 -72.69977 2723 ft 155 kts 13°
2026-04-29 01:32 -39.03742 -72.69573 2727 ft 151 kts 12°
2026-04-29 01:33 -39.02751 -72.69180 2685 ft 152 kts 11°
2026-04-29 01:33 -39.01685 -72.68762 2438 ft 166 kts 17°
2026-04-29 01:33 -39.00714 -72.67835 2198 ft 184 kts 42°
2026-04-29 01:33 -38.99767 -72.66670 2044 ft 187 kts 30°
2026-04-29 01:34 -38.98598 -72.65993 2035 ft 180 kts 16°
2026-04-29 01:34 -38.97449 -72.65445 2026 ft 174 kts 16°
2026-04-29 01:34 -38.96408 -72.64952 2036 ft 142 kts 15°
2026-04-29 01:34 -38.95578 -72.64532 2024 ft 121 kts 17°
2026-04-29 01:35 -38.94786 -72.64138 2034 ft 121 kts 16°
2026-04-29 01:35 -38.93994 -72.63742 2035 ft 120 kts 15°
2026-04-29 01:35 -38.93195 -72.63319 2029 ft 119 kts 15°
2026-04-29 01:35 -38.92424 -72.62923 2037 ft 119 kts 15°
2026-04-29 01:36 -38.91639 -72.62523 2033 ft 122 kts 15°
2026-04-29 01:36 -38.90830 -72.62117 2055 ft 123 kts 14°
2026-04-29 01:36 -38.90077 -72.62102 2017 ft 96 kts 327°
2026-04-29 01:36 -38.89737 -72.62708 1976 ft 84 kts 279°
2026-04-29 01:37 -38.89620 -72.63455 1772 ft 88 kts 268°
2026-04-29 01:37 -38.90079 -72.63962 1214 ft 96 kts 201°
2026-04-29 01:37 -38.90662 -72.64259 789 ft 92 kts 210°
2026-04-29 01:37 -38.91222 -72.64598 435 ft 80 kts 208°
2026-04-29 01:38 -38.91674 -72.64789 316 ft 55 kts 198°
2026-04-29 01:38 -38.91953 -72.64908 318 ft 33 kts 196°
2026-04-29 01:38 -38.92144 -72.64981 319 ft 24 kts 198°
2026-04-29 01:38 -38.92288 -72.65033 321 ft 18 kts 186°
2026-04-29 01:39 -38.92378 -72.64941 324 ft 19 kts 109°
2026-04-29 01:39 -38.92411 -72.64813 325 ft 12 kts 119°
2026-04-29 01:39 -38.92480 -72.64796 328 ft 12 kts 198°
2026-04-29 01:39 -38.92567 -72.64825 332 ft 13 kts 176°
2026-04-29 01:40 -38.92620 -72.64758 334 ft 12 kts 112°
2026-04-29 01:40 -38.92630 -72.64716 334 ft 0 kts 105°